• In Uzbekistan
  • List of Countries
  • For 7 days
  • Water Temperature
  • Weather Map
  • Weather Widgets
  • user-avatar
    Login

    Hourly Weather Abdukarim

    Today, 3 June, Wednesday

    Time Temperature Precipitation Wind Pressure Humidity
    00:00 +26°C° 0 mm 2 mps 694 mmHg 30%
    01:00 +26°C° 0 mm 1 mps 694 mmHg 30%
    02:00 +26°C° 0 mm 1 mps 694 mmHg 31%
    03:00 +25°C° 0 mm 1 mps 693 mmHg 31%
    04:00 +25°C° 0 mm 1 mps 693 mmHg 31%
    05:00 +24°C° 0 mm 1 mps 693 mmHg 31%
    06:00 +26°C° 0 mm 1 mps 694 mmHg 29%
    07:00 +29°C° 0 mm 1 mps 694 mmHg 26%
    08:00 +31°C° 0 mm 1 mps 695 mmHg 23%
    09:00 +32°C° 0 mm 2 mps 695 mmHg 20%
    10:00 +34°C° 0 mm 3 mps 695 mmHg 18%
    11:00 +36°C° 0 mm 4 mps 695 mmHg 16%
    12:00 +36°C° 0 mm 5 mps 695 mmHg 15%
    13:00 +37°C° 0 mm 5 mps 694 mmHg 14%
    14:00 +37°C° 0 mm 5 mps 694 mmHg 14%
    15:00 +37°C° 0 mm 5 mps 694 mmHg 14%
    16:00 +37°C° 0 mm 5 mps 694 mmHg 14%
    17:00 +37°C° 0 mm 5 mps 693 mmHg 14%
    18:00 +34°C° 0 mm 4 mps 693 mmHg 17%
    19:00 +31°C° 0 mm 3 mps 693 mmHg 19%
    20:00 +29°C° 0 mm 2 mps 692 mmHg 22%
    21:00 +28°C° 0 mm 2 mps 693 mmHg 22%
    22:00 +28°C° 0 mm 1 mps 693 mmHg 22%
    23:00 +27°C° 0 mm 1 mps 693 mmHg 22%

    Tomorrow, 4 June, Thursday

    Time Temperature Precipitation Wind Pressure Humidity
    00:00 +27°C° 0 mm 1 mps 693 mmHg 22%
    01:00 +26°C° 0 mm 1 mps 692 mmHg 22%
    02:00 +26°C° 0 mm 1 mps 692 mmHg 23%
    03:00 +26°C° 0 mm 1 mps 692 mmHg 23%
    04:00 +25°C° 0 mm 1 mps 692 mmHg 24%
    05:00 +25°C° 0 mm 1 mps 692 mmHg 24%
    06:00 +27°C° 0 mm 1 mps 693 mmHg 23%
    07:00 +30°C° 0 mm 1 mps 693 mmHg 21%
    08:00 +32°C° 0 mm 1 mps 694 mmHg 19%
    09:00 +34°C° 0 mm 2 mps 694 mmHg 18%
    10:00 +36°C° 0 mm 3 mps 695 mmHg 17%
    11:00 +37°C° 0 mm 4 mps 695 mmHg 16%
    12:00 +39°C° 0 mm 5 mps 695 mmHg 15%
    13:00 +39°C° 0 mm 5 mps 694 mmHg 13%
    14:00 +40°C° 0 mm 6 mps 694 mmHg 12%
    15:00 +40°C° 0 mm 6 mps 694 mmHg 12%
    16:00 +39°C° 0 mm 6 mps 694 mmHg 12%
    17:00 +39°C° 0 mm 6 mps 694 mmHg 12%
    18:00 +36°C° 0 mm 5 mps 694 mmHg 14%
    19:00 +34°C° 0 mm 4 mps 693 mmHg 17%
    20:00 +31°C° 0 mm 3 mps 693 mmHg 19%
    21:00 +30°C° 0 mm 3 mps 693 mmHg 20%
    22:00 +29°C° 0 mm 3 mps 694 mmHg 20%
    23:00 +29°C° 0 mm 3 mps 694 mmHg 21%

    Day after tomorrow, 5 June, Friday

    Time Temperature Precipitation Wind Pressure Humidity
    00:00 +28°C° 0 mm 2 mps 694 mmHg 21%
    01:00 +28°C° 0 mm 2 mps 694 mmHg 21%
    02:00 +28°C° 0 mm 2 mps 693 mmHg 21%
    03:00 +27°C° 0 mm 2 mps 693 mmHg 20%
    04:00 +27°C° 0 mm 2 mps 693 mmHg 20%
    05:00 +27°C° 0 mm 2 mps 693 mmHg 19%
    06:00 +29°C° 0 mm 2 mps 694 mmHg 18%
    07:00 +32°C° 0 mm 1 mps 694 mmHg 17%
    08:00 +34°C° 0 mm 1 mps 695 mmHg 15%
    09:00 +36°C° 0 mm 2 mps 695 mmHg 13%
    10:00 +38°C° 0 mm 2 mps 695 mmHg 12%
    11:00 +40°C° 0 mm 2 mps 695 mmHg 10%
    12:00 +40°C° 0 mm 3 mps 695 mmHg 9%
    13:00 +42°C° 0 mm 4 mps 695 mmHg 9%
    14:00 +42°C° 0 mm 5 mps 694 mmHg 9%
    15:00 +42°C° 0 mm 5 mps 694 mmHg 9%
    16:00 +41°C° 0 mm 6 mps 694 mmHg 9%
    17:00 +41°C° 0 mm 7 mps 694 mmHg 9%
    18:00 +37°C° 0 mm 5 mps 694 mmHg 12%
    19:00 +35°C° 0 mm 4 mps 694 mmHg 14%
    20:00 +31°C° 0 mm 3 mps 693 mmHg 17%
    21:00 +30°C° 0 mm 2 mps 694 mmHg 17%
    22:00 +29°C° 0 mm 2 mps 694 mmHg 18%
    23:00 +29°C° 0 mm 2 mps 694 mmHg 19%

    6 June, Saturday

    Time Temperature Precipitation Wind Pressure Humidity
    00:00 +28°C° 0 mm 2 mps 694 mmHg 19%
    01:00 +27°C° 0 mm 2 mps 694 mmHg 20%
    02:00 +27°C° 0 mm 2 mps 693 mmHg 20%
    03:00 +27°C° 0 mm 2 mps 693 mmHg 20%
    04:00 +26°C° 0 mm 2 mps 693 mmHg 21%
    05:00 +26°C° 0 mm 2 mps 693 mmHg 21%
    06:00 +28°C° 0 mm 2 mps 694 mmHg 19%
    07:00 +30°C° 0 mm 2 mps 694 mmHg 18%
    08:00 +32°C° 0 mm 2 mps 695 mmHg 17%
    09:00 +34°C° 0 mm 2 mps 695 mmHg 15%
    10:00 +36°C° 0 mm 3 mps 695 mmHg 14%
    11:00 +37°C° 0 mm 3 mps 696 mmHg 13%
    12:00 +37°C° 0 mm 4 mps 695 mmHg 13%
    13:00 +38°C° 0 mm 4 mps 695 mmHg 13%
    14:00 +38°C° 0 mm 4 mps 695 mmHg 12%
    15:00 +39°C° 0 mm 5 mps 695 mmHg 13%
    16:00 +37°C° 0 mm 5 mps 695 mmHg 15%
    17:00 +38°C° 0 mm 6 mps 695 mmHg 16%
    18:00 +34°C° 0 mm 5 mps 695 mmHg 18%
    19:00 +32°C° 0 mm 4 mps 695 mmHg 21%
    20:00 +29°C° 0 mm 3 mps 694 mmHg 23%
    21:00 +28°C° 0 mm 3 mps 694 mmHg 25%
    22:00 +27°C° 0 mm 3 mps 694 mmHg 26%
    23:00 +26°C° 0 mm 2 mps 695 mmHg 28%

    7 June, Sunday

    Time Temperature Precipitation Wind Pressure Humidity
    00:00 +25°C° 0 mm 2 mps 694 mmHg 29%
    01:00 +25°C° 0 mm 2 mps 694 mmHg 31%
    02:00 +24°C° 0 mm 2 mps 693 mmHg 32%
    03:00 +24°C° 0 mm 2 mps 693 mmHg 33%
    04:00 +23°C° 0 mm 2 mps 693 mmHg 33%
    05:00 +23°C° 0 mm 1 mps 693 mmHg 34%
    06:00 +25°C° 0 mm 2 mps 694 mmHg 31%
    07:00 +27°C° 0 mm 2 mps 694 mmHg 28%
    08:00 +29°C° 0 mm 3 mps 695 mmHg 25%
    09:00 +30°C° 0 mm 3 mps 695 mmHg 22%
    10:00 +32°C° 0 mm 4 mps 695 mmHg 20%
    11:00 +34°C° 0 mm 4 mps 695 mmHg 18%
    12:00 +34°C° 0 mm 4 mps 695 mmHg 17%
    13:00 +35°C° 0 mm 4 mps 695 mmHg 16%
    14:00 +35°C° 0 mm 4 mps 695 mmHg 16%
    15:00 +35°C° 0 mm 4 mps 695 mmHg 15%
    16:00 +35°C° 0 mm 4 mps 695 mmHg 15%
    17:00 +35°C° 0 mm 4 mps 695 mmHg 15%
    18:00 +33°C° 0 mm 4 mps 695 mmHg 17%
    19:00 +32°C° 0 mm 4 mps 694 mmHg 19%
    20:00 +29°C° 0 mm 4 mps 694 mmHg 21%
    21:00 +28°C° 0 mm 3 mps 694 mmHg 22%
    22:00 +26°C° 0 mm 3 mps 693 mmHg 24%
    23:00 +25°C° 0 mm 2 mps 693 mmHg 25%

    8 June, Monday

    Time Temperature Precipitation Wind Pressure Humidity
    00:00 +25°C° 0 mm 2 mps 693 mmHg 25%
    01:00 +25°C° 0 mm 2 mps 693 mmHg 24%
    02:00 +25°C° 0 mm 2 mps 693 mmHg 24%
    03:00 +25°C° 0 mm 2 mps 692 mmHg 25%
    04:00 +24°C° 0 mm 1 mps 692 mmHg 26%
    05:00 +24°C° 0 mm 1 mps 692 mmHg 27%
    06:00 +25°C° 0 mm 1 mps 692 mmHg 26%
    07:00 +26°C° 0 mm 1 mps 692 mmHg 26%
    08:00 +27°C° 0 mm 1 mps 693 mmHg 26%
    09:00 +27°C° 0 mm 2 mps 693 mmHg 31%
    10:00 +26°C° 0 mm 2 mps 693 mmHg 35%
    11:00 +26°C° 0 mm 3 mps 694 mmHg 40%
    12:00 +25°C° 0.1 mm 3 mps 694 mmHg 45%
    13:00 +24°C° 0.1 mm 3 mps 694 mmHg 50%
    14:00 +23°C° 0.1 mm 2 mps 694 mmHg 56%
    15:00 +23°C° 0.2 mm 2 mps 694 mmHg 56%
    16:00 +23°C° 0.2 mm 2 mps 694 mmHg 57%
    17:00 +23°C° 0.2 mm 2 mps 694 mmHg 58%
    18:00 +22°C° 0.3 mm 1 mps 694 mmHg 62%
    19:00 +21°C° 0.3 mm 1 mps 694 mmHg 66%
    20:00 +21°C° 0.3 mm 1 mps 694 mmHg 71%
    21:00 +20°C° 0 mm 1 mps 694 mmHg 70%
    22:00 +20°C° 0 mm 1 mps 694 mmHg 70%
    23:00 +19°C° 0 mm 2 mps 694 mmHg 70%
    Show more